Index of /20260429/WXO-DD/model_caps/3km/12/002
Name Last modified Size Description
Parent Directory -
20260429T12Z_MSC_CAPS_AbsoluteVorticity_IsbL-0250_RLatLon0.03_PT002H.grib2 2026-04-29 18:06 1.1M
20260429T12Z_MSC_CAPS_AbsoluteVorticity_IsbL-0500_RLatLon0.03_PT002H.grib2 2026-04-29 18:06 1.1M
20260429T12Z_MSC_CAPS_AbsoluteVorticity_IsbL-0700_RLatLon0.03_PT002H.grib2 2026-04-29 18:06 1.2M
20260429T12Z_MSC_CAPS_AbsoluteVorticity_IsbL-0850_RLatLon0.03_PT002H.grib2 2026-04-29 18:06 1.2M
20260429T12Z_MSC_CAPS_AbsoluteVorticity_IsbL-1000_RLatLon0.03_PT002H.grib2 2026-04-29 18:06 1.4M
20260429T12Z_MSC_CAPS_AirDensity_AGL-120m_RLatLon0.03_PT002H.grib2 2026-04-29 18:06 1.4M
20260429T12Z_MSC_CAPS_AirDensity_AGL-40m_RLatLon0.03_PT002H.grib2 2026-04-29 18:06 1.5M
20260429T12Z_MSC_CAPS_AirDensity_AGL-80m_RLatLon0.03_PT002H.grib2 2026-04-29 18:06 1.4M
20260429T12Z_MSC_CAPS_AirTemp_AGL-120m_RLatLon0.03_PT002H.grib2 2026-04-29 18:06 1.4M
20260429T12Z_MSC_CAPS_AirTemp_AGL-2m_RLatLon0.03_PT002H.grib2 2026-04-29 18:06 1.8M
20260429T12Z_MSC_CAPS_AirTemp_AGL-40m_RLatLon0.03_PT002H.grib2 2026-04-29 18:06 1.5M
20260429T12Z_MSC_CAPS_AirTemp_AGL-80m_RLatLon0.03_PT002H.grib2 2026-04-29 18:06 1.4M
20260429T12Z_MSC_CAPS_AirTemp_IsbL-0050_RLatLon0.03_PT002H.grib2 2026-04-29 18:06 706K
20260429T12Z_MSC_CAPS_AirTemp_IsbL-0100_RLatLon0.03_PT002H.grib2 2026-04-29 18:06 946K
20260429T12Z_MSC_CAPS_AirTemp_IsbL-0150_RLatLon0.03_PT002H.grib2 2026-04-29 18:06 1.0M
20260429T12Z_MSC_CAPS_AirTemp_IsbL-0175_RLatLon0.03_PT002H.grib2 2026-04-29 18:06 765K
20260429T12Z_MSC_CAPS_AirTemp_IsbL-0200_RLatLon0.03_PT002H.grib2 2026-04-29 18:06 780K
20260429T12Z_MSC_CAPS_AirTemp_IsbL-0225_RLatLon0.03_PT002H.grib2 2026-04-29 18:06 783K
20260429T12Z_MSC_CAPS_AirTemp_IsbL-0250_RLatLon0.03_PT002H.grib2 2026-04-29 18:06 780K
20260429T12Z_MSC_CAPS_AirTemp_IsbL-0275_RLatLon0.03_PT002H.grib2 2026-04-29 18:06 1.0M
20260429T12Z_MSC_CAPS_AirTemp_IsbL-0300_RLatLon0.03_PT002H.grib2 2026-04-29 18:06 856K
20260429T12Z_MSC_CAPS_AirTemp_IsbL-0350_RLatLon0.03_PT002H.grib2 2026-04-29 18:06 1.0M
20260429T12Z_MSC_CAPS_AirTemp_IsbL-0400_RLatLon0.03_PT002H.grib2 2026-04-29 18:06 752K
20260429T12Z_MSC_CAPS_AirTemp_IsbL-0450_RLatLon0.03_PT002H.grib2 2026-04-29 18:06 760K
20260429T12Z_MSC_CAPS_AirTemp_IsbL-0500_RLatLon0.03_PT002H.grib2 2026-04-29 18:06 771K
20260429T12Z_MSC_CAPS_AirTemp_IsbL-0550_RLatLon0.03_PT002H.grib2 2026-04-29 18:06 783K
20260429T12Z_MSC_CAPS_AirTemp_IsbL-0600_RLatLon0.03_PT002H.grib2 2026-04-29 18:06 799K
20260429T12Z_MSC_CAPS_AirTemp_IsbL-0650_RLatLon0.03_PT002H.grib2 2026-04-29 18:06 1.0M
20260429T12Z_MSC_CAPS_AirTemp_IsbL-0700_RLatLon0.03_PT002H.grib2 2026-04-29 18:06 1.0M
20260429T12Z_MSC_CAPS_AirTemp_IsbL-0750_RLatLon0.03_PT002H.grib2 2026-04-29 18:06 1.0M
20260429T12Z_MSC_CAPS_AirTemp_IsbL-0800_RLatLon0.03_PT002H.grib2 2026-04-29 18:06 1.0M
20260429T12Z_MSC_CAPS_AirTemp_IsbL-0850_RLatLon0.03_PT002H.grib2 2026-04-29 18:06 1.1M
20260429T12Z_MSC_CAPS_AirTemp_IsbL-0875_RLatLon0.03_PT002H.grib2 2026-04-29 18:06 1.1M
20260429T12Z_MSC_CAPS_AirTemp_IsbL-0900_RLatLon0.03_PT002H.grib2 2026-04-29 18:06 1.1M
20260429T12Z_MSC_CAPS_AirTemp_IsbL-0925_RLatLon0.03_PT002H.grib2 2026-04-29 18:06 1.1M
20260429T12Z_MSC_CAPS_AirTemp_IsbL-0950_RLatLon0.03_PT002H.grib2 2026-04-29 18:06 1.2M
20260429T12Z_MSC_CAPS_AirTemp_IsbL-0970_RLatLon0.03_PT002H.grib2 2026-04-29 18:06 1.1M
20260429T12Z_MSC_CAPS_AirTemp_IsbL-0985_RLatLon0.03_PT002H.grib2 2026-04-29 18:06 1.0M
20260429T12Z_MSC_CAPS_AirTemp_IsbL-1000_RLatLon0.03_PT002H.grib2 2026-04-29 18:06 1.0M
20260429T12Z_MSC_CAPS_AirTemp_IsbL-1015_RLatLon0.03_PT002H.grib2 2026-04-29 18:06 1.1M
20260429T12Z_MSC_CAPS_Albedo_Sfc_RLatLon0.03_PT002H.grib2 2026-04-29 18:06 2.7M
20260429T12Z_MSC_CAPS_CAPE_Sfc_RLatLon0.03_PT002H.grib2 2026-04-29 18:06 34K
20260429T12Z_MSC_CAPS_CloudWater_EAtm_RLatLon0.03_PT002H.grib2 2026-04-29 18:06 1.3M
20260429T12Z_MSC_CAPS_ConvectivePrecip-Accum_Sfc_RLatLon0.03_PT002H.grib2 2026-04-29 18:06 919K
20260429T12Z_MSC_CAPS_DewPointDepression_AGL-120m_RLatLon0.03_PT002H.grib2 2026-04-29 18:06 1.9M
20260429T12Z_MSC_CAPS_DewPointDepression_AGL-2m_RLatLon0.03_PT002H.grib2 2026-04-29 18:06 2.1M
20260429T12Z_MSC_CAPS_DewPointDepression_AGL-40m_RLatLon0.03_PT002H.grib2 2026-04-29 18:06 2.0M
20260429T12Z_MSC_CAPS_DewPointDepression_AGL-80m_RLatLon0.03_PT002H.grib2 2026-04-29 18:06 2.0M
20260429T12Z_MSC_CAPS_DewPointDepression_IsbL-0050_RLatLon0.03_PT002H.grib2 2026-04-29 18:06 1.4K
20260429T12Z_MSC_CAPS_DewPointDepression_IsbL-0100_RLatLon0.03_PT002H.grib2 2026-04-29 18:06 137K
20260429T12Z_MSC_CAPS_DewPointDepression_IsbL-0150_RLatLon0.03_PT002H.grib2 2026-04-29 18:06 160K
20260429T12Z_MSC_CAPS_DewPointDepression_IsbL-0175_RLatLon0.03_PT002H.grib2 2026-04-29 18:06 207K
20260429T12Z_MSC_CAPS_DewPointDepression_IsbL-0200_RLatLon0.03_PT002H.grib2 2026-04-29 18:06 377K
20260429T12Z_MSC_CAPS_DewPointDepression_IsbL-0225_RLatLon0.03_PT002H.grib2 2026-04-29 18:06 653K
20260429T12Z_MSC_CAPS_DewPointDepression_IsbL-0250_RLatLon0.03_PT002H.grib2 2026-04-29 18:06 821K
20260429T12Z_MSC_CAPS_DewPointDepression_IsbL-0275_RLatLon0.03_PT002H.grib2 2026-04-29 18:06 922K
20260429T12Z_MSC_CAPS_DewPointDepression_IsbL-0300_RLatLon0.03_PT002H.grib2 2026-04-29 18:06 1.0M
20260429T12Z_MSC_CAPS_DewPointDepression_IsbL-0350_RLatLon0.03_PT002H.grib2 2026-04-29 18:06 1.0M
20260429T12Z_MSC_CAPS_DewPointDepression_IsbL-0400_RLatLon0.03_PT002H.grib2 2026-04-29 18:06 1.0M
20260429T12Z_MSC_CAPS_DewPointDepression_IsbL-0450_RLatLon0.03_PT002H.grib2 2026-04-29 18:06 1.0M
20260429T12Z_MSC_CAPS_DewPointDepression_IsbL-0500_RLatLon0.03_PT002H.grib2 2026-04-29 18:06 1.0M
20260429T12Z_MSC_CAPS_DewPointDepression_IsbL-0550_RLatLon0.03_PT002H.grib2 2026-04-29 18:06 1.1M
20260429T12Z_MSC_CAPS_DewPointDepression_IsbL-0600_RLatLon0.03_PT002H.grib2 2026-04-29 18:06 1.1M
20260429T12Z_MSC_CAPS_DewPointDepression_IsbL-0650_RLatLon0.03_PT002H.grib2 2026-04-29 18:06 1.1M
20260429T12Z_MSC_CAPS_DewPointDepression_IsbL-0700_RLatLon0.03_PT002H.grib2 2026-04-29 18:06 1.1M
20260429T12Z_MSC_CAPS_DewPointDepression_IsbL-0750_RLatLon0.03_PT002H.grib2 2026-04-29 18:06 1.2M
20260429T12Z_MSC_CAPS_DewPointDepression_IsbL-0800_RLatLon0.03_PT002H.grib2 2026-04-29 18:06 1.2M
20260429T12Z_MSC_CAPS_DewPointDepression_IsbL-0850_RLatLon0.03_PT002H.grib2 2026-04-29 18:06 1.2M
20260429T12Z_MSC_CAPS_DewPointDepression_IsbL-0875_RLatLon0.03_PT002H.grib2 2026-04-29 18:06 1.2M
20260429T12Z_MSC_CAPS_DewPointDepression_IsbL-0900_RLatLon0.03_PT002H.grib2 2026-04-29 18:06 1.3M
20260429T12Z_MSC_CAPS_DewPointDepression_IsbL-0925_RLatLon0.03_PT002H.grib2 2026-04-29 18:06 1.3M
20260429T12Z_MSC_CAPS_DewPointDepression_IsbL-0950_RLatLon0.03_PT002H.grib2 2026-04-29 18:06 1.3M
20260429T12Z_MSC_CAPS_DewPointDepression_IsbL-0970_RLatLon0.03_PT002H.grib2 2026-04-29 18:06 1.3M
20260429T12Z_MSC_CAPS_DewPointDepression_IsbL-0985_RLatLon0.03_PT002H.grib2 2026-04-29 18:06 1.3M
20260429T12Z_MSC_CAPS_DewPointDepression_IsbL-1000_RLatLon0.03_PT002H.grib2 2026-04-29 18:06 1.3M
20260429T12Z_MSC_CAPS_DewPointDepression_IsbL-1015_RLatLon0.03_PT002H.grib2 2026-04-29 18:06 1.3M
20260429T12Z_MSC_CAPS_DewPoint_AGL-120m_RLatLon0.03_PT002H.grib2 2026-04-29 18:06 3.5M
20260429T12Z_MSC_CAPS_DewPoint_AGL-2m_RLatLon0.03_PT002H.grib2 2026-04-29 18:06 2.2M
20260429T12Z_MSC_CAPS_DewPoint_AGL-40m_RLatLon0.03_PT002H.grib2 2026-04-29 18:06 3.7M
20260429T12Z_MSC_CAPS_DewPoint_AGL-80m_RLatLon0.03_PT002H.grib2 2026-04-29 18:06 3.6M
20260429T12Z_MSC_CAPS_DownwardLongwaveRadiationFlux-Accum_Sfc_RLatLon0.03_PT002H.grib2 2026-04-29 18:06 2.3M
20260429T12Z_MSC_CAPS_DownwardShortwaveRadiationFlux-Accum_NTAtm_RLatLon0.03_PT002H.grib2 2026-04-29 18:06 369K
20260429T12Z_MSC_CAPS_DownwardShortwaveRadiationFlux-Accum_Sfc_RLatLon0.03_PT002H.grib2 2026-04-29 18:06 1.8M
20260429T12Z_MSC_CAPS_FreezingRain-Accum_Sfc_RLatLon0.03_PT002H.grib2 2026-04-29 18:06 173K
20260429T12Z_MSC_CAPS_GeopotentialHeight_IsbL-0050_RLatLon0.03_PT002H.grib2 2026-04-29 18:06 650K
20260429T12Z_MSC_CAPS_GeopotentialHeight_IsbL-0100_RLatLon0.03_PT002H.grib2 2026-04-29 18:06 764K
20260429T12Z_MSC_CAPS_GeopotentialHeight_IsbL-0150_RLatLon0.03_PT002H.grib2 2026-04-29 18:06 730K
20260429T12Z_MSC_CAPS_GeopotentialHeight_IsbL-0175_RLatLon0.03_PT002H.grib2 2026-04-29 18:06 739K
20260429T12Z_MSC_CAPS_GeopotentialHeight_IsbL-0200_RLatLon0.03_PT002H.grib2 2026-04-29 18:06 747K
20260429T12Z_MSC_CAPS_GeopotentialHeight_IsbL-0225_RLatLon0.03_PT002H.grib2 2026-04-29 18:06 754K
20260429T12Z_MSC_CAPS_GeopotentialHeight_IsbL-0250_RLatLon0.03_PT002H.grib2 2026-04-29 18:06 767K
20260429T12Z_MSC_CAPS_GeopotentialHeight_IsbL-0275_RLatLon0.03_PT002H.grib2 2026-04-29 18:06 775K
20260429T12Z_MSC_CAPS_GeopotentialHeight_IsbL-0300_RLatLon0.03_PT002H.grib2 2026-04-29 18:06 780K
20260429T12Z_MSC_CAPS_GeopotentialHeight_IsbL-0350_RLatLon0.03_PT002H.grib2 2026-04-29 18:06 781K
20260429T12Z_MSC_CAPS_GeopotentialHeight_IsbL-0400_RLatLon0.03_PT002H.grib2 2026-04-29 18:06 774K
20260429T12Z_MSC_CAPS_GeopotentialHeight_IsbL-0450_RLatLon0.03_PT002H.grib2 2026-04-29 18:06 764K
20260429T12Z_MSC_CAPS_GeopotentialHeight_IsbL-0500_RLatLon0.03_PT002H.grib2 2026-04-29 18:06 756K
20260429T12Z_MSC_CAPS_GeopotentialHeight_IsbL-0550_RLatLon0.03_PT002H.grib2 2026-04-29 18:06 751K
20260429T12Z_MSC_CAPS_GeopotentialHeight_IsbL-0600_RLatLon0.03_PT002H.grib2 2026-04-29 18:06 630K
20260429T12Z_MSC_CAPS_GeopotentialHeight_IsbL-0650_RLatLon0.03_PT002H.grib2 2026-04-29 18:06 628K
20260429T12Z_MSC_CAPS_GeopotentialHeight_IsbL-0700_RLatLon0.03_PT002H.grib2 2026-04-29 18:06 803K
20260429T12Z_MSC_CAPS_GeopotentialHeight_IsbL-0750_RLatLon0.03_PT002H.grib2 2026-04-29 18:06 804K
20260429T12Z_MSC_CAPS_GeopotentialHeight_IsbL-0800_RLatLon0.03_PT002H.grib2 2026-04-29 18:06 883K
20260429T12Z_MSC_CAPS_GeopotentialHeight_IsbL-0850_RLatLon0.03_PT002H.grib2 2026-04-29 18:06 897K
20260429T12Z_MSC_CAPS_GeopotentialHeight_IsbL-0875_RLatLon0.03_PT002H.grib2 2026-04-29 18:06 905K
20260429T12Z_MSC_CAPS_GeopotentialHeight_IsbL-0900_RLatLon0.03_PT002H.grib2 2026-04-29 18:06 913K
20260429T12Z_MSC_CAPS_GeopotentialHeight_IsbL-0925_RLatLon0.03_PT002H.grib2 2026-04-29 18:06 922K
20260429T12Z_MSC_CAPS_GeopotentialHeight_IsbL-0950_RLatLon0.03_PT002H.grib2 2026-04-29 18:06 934K
20260429T12Z_MSC_CAPS_GeopotentialHeight_IsbL-0970_RLatLon0.03_PT002H.grib2 2026-04-29 18:06 948K
20260429T12Z_MSC_CAPS_GeopotentialHeight_IsbL-0985_RLatLon0.03_PT002H.grib2 2026-04-29 18:06 958K
20260429T12Z_MSC_CAPS_GeopotentialHeight_IsbL-1000_RLatLon0.03_PT002H.grib2 2026-04-29 18:06 967K
20260429T12Z_MSC_CAPS_GeopotentialHeight_IsbL-1015_RLatLon0.03_PT002H.grib2 2026-04-29 18:06 1.0M
20260429T12Z_MSC_CAPS_GeopotentialHeight_Sfc_RLatLon0.03_PT002H.grib2 2026-04-29 18:06 1.0M
20260429T12Z_MSC_CAPS_IcePellets-Accum_Sfc_RLatLon0.03_PT002H.grib2 2026-04-29 18:06 13K
20260429T12Z_MSC_CAPS_LatentHeatNetFlux_Sfc_RLatLon0.03_PT002H.grib2 2026-04-29 18:06 2.1M
20260429T12Z_MSC_CAPS_LiftedIndex-MU-VT_IsbL-0500_RLatLon0.03_PT002H.grib2 2026-04-29 18:06 3.3M
20260429T12Z_MSC_CAPS_MixedLayerThickness_Sfc_RLatLon0.03_PT002H.nc 2026-04-29 18:12 17M
20260429T12Z_MSC_CAPS_NetLongwaveRadiationFlux-Accum_Sfc_RLatLon0.03_PT002H.grib2 2026-04-29 18:06 2.6M
20260429T12Z_MSC_CAPS_NetShortwaveRadiationFlux-Accum_Sfc_RLatLon0.03_PT002H.grib2 2026-04-29 18:06 1.9M
20260429T12Z_MSC_CAPS_PlanetaryBoundaryLayerHeight_Sfc_RLatLon0.03_PT002H.grib2 2026-04-29 18:06 2.5M
20260429T12Z_MSC_CAPS_Precip-Accum_Sfc_RLatLon0.03_PT002H.grib2 2026-04-29 18:06 2.3M
20260429T12Z_MSC_CAPS_PrecipRate_Sfc_RLatLon0.03_PT002H.grib2 2026-04-29 18:06 279K
20260429T12Z_MSC_CAPS_PrecipType-Instant_Sfc_RLatLon0.03_PT002H.grib2 2026-04-29 18:06 1.1M
20260429T12Z_MSC_CAPS_Pressure_MSL_RLatLon0.03_PT002H.grib2 2026-04-29 18:06 774K
20260429T12Z_MSC_CAPS_Pressure_Sfc_RLatLon0.03_PT002H.grib2 2026-04-29 18:06 1.2M
20260429T12Z_MSC_CAPS_RadiativeTemp_Sfc_RLatLon0.03_PT002H.grib2 2026-04-29 18:06 2.2M
20260429T12Z_MSC_CAPS_Rain-Accum_Sfc_RLatLon0.03_PT002H.grib2 2026-04-29 18:06 856K
20260429T12Z_MSC_CAPS_RelativeHumidity_AGL-120m_RLatLon0.03_PT002H.grib2 2026-04-29 18:06 2.8M
20260429T12Z_MSC_CAPS_RelativeHumidity_AGL-2m_RLatLon0.03_PT002H.grib2 2026-04-29 18:06 2.9M
20260429T12Z_MSC_CAPS_RelativeHumidity_AGL-40m_RLatLon0.03_PT002H.grib2 2026-04-29 18:06 2.9M
20260429T12Z_MSC_CAPS_RelativeHumidity_AGL-80m_RLatLon0.03_PT002H.grib2 2026-04-29 18:06 2.8M
20260429T12Z_MSC_CAPS_RelativeHumidity_IsbL-0050_RLatLon0.03_PT002H.grib2 2026-04-29 18:06 972K
20260429T12Z_MSC_CAPS_RelativeHumidity_IsbL-0100_RLatLon0.03_PT002H.grib2 2026-04-29 18:06 856K
20260429T12Z_MSC_CAPS_RelativeHumidity_IsbL-0150_RLatLon0.03_PT002H.grib2 2026-04-29 18:06 755K
20260429T12Z_MSC_CAPS_RelativeHumidity_IsbL-0175_RLatLon0.03_PT002H.grib2 2026-04-29 18:06 488K
20260429T12Z_MSC_CAPS_RelativeHumidity_IsbL-0200_RLatLon0.03_PT002H.grib2 2026-04-29 18:06 654K
20260429T12Z_MSC_CAPS_RelativeHumidity_IsbL-0225_RLatLon0.03_PT002H.grib2 2026-04-29 18:06 855K
20260429T12Z_MSC_CAPS_RelativeHumidity_IsbL-0250_RLatLon0.03_PT002H.grib2 2026-04-29 18:06 1.0M
20260429T12Z_MSC_CAPS_RelativeHumidity_IsbL-0275_RLatLon0.03_PT002H.grib2 2026-04-29 18:06 1.3M
20260429T12Z_MSC_CAPS_RelativeHumidity_IsbL-0300_RLatLon0.03_PT002H.grib2 2026-04-29 18:06 1.4M
20260429T12Z_MSC_CAPS_RelativeHumidity_IsbL-0350_RLatLon0.03_PT002H.grib2 2026-04-29 18:06 1.7M
20260429T12Z_MSC_CAPS_RelativeHumidity_IsbL-0400_RLatLon0.03_PT002H.grib2 2026-04-29 18:06 1.8M
20260429T12Z_MSC_CAPS_RelativeHumidity_IsbL-0450_RLatLon0.03_PT002H.grib2 2026-04-29 18:06 1.9M
20260429T12Z_MSC_CAPS_RelativeHumidity_IsbL-0500_RLatLon0.03_PT002H.grib2 2026-04-29 18:06 2.0M
20260429T12Z_MSC_CAPS_RelativeHumidity_IsbL-0550_RLatLon0.03_PT002H.grib2 2026-04-29 18:06 1.9M
20260429T12Z_MSC_CAPS_RelativeHumidity_IsbL-0600_RLatLon0.03_PT002H.grib2 2026-04-29 18:06 1.9M
20260429T12Z_MSC_CAPS_RelativeHumidity_IsbL-0650_RLatLon0.03_PT002H.grib2 2026-04-29 18:06 1.9M
20260429T12Z_MSC_CAPS_RelativeHumidity_IsbL-0700_RLatLon0.03_PT002H.grib2 2026-04-29 18:06 2.1M
20260429T12Z_MSC_CAPS_RelativeHumidity_IsbL-0750_RLatLon0.03_PT002H.grib2 2026-04-29 18:06 2.2M
20260429T12Z_MSC_CAPS_RelativeHumidity_IsbL-0800_RLatLon0.03_PT002H.grib2 2026-04-29 18:06 2.2M
20260429T12Z_MSC_CAPS_RelativeHumidity_IsbL-0850_RLatLon0.03_PT002H.grib2 2026-04-29 18:06 2.3M
20260429T12Z_MSC_CAPS_RelativeHumidity_IsbL-0875_RLatLon0.03_PT002H.grib2 2026-04-29 18:06 2.3M
20260429T12Z_MSC_CAPS_RelativeHumidity_IsbL-0900_RLatLon0.03_PT002H.grib2 2026-04-29 18:06 2.4M
20260429T12Z_MSC_CAPS_RelativeHumidity_IsbL-0925_RLatLon0.03_PT002H.grib2 2026-04-29 18:06 2.4M
20260429T12Z_MSC_CAPS_RelativeHumidity_IsbL-0950_RLatLon0.03_PT002H.grib2 2026-04-29 18:06 2.5M
20260429T12Z_MSC_CAPS_RelativeHumidity_IsbL-0970_RLatLon0.03_PT002H.grib2 2026-04-29 18:06 2.6M
20260429T12Z_MSC_CAPS_RelativeHumidity_IsbL-0985_RLatLon0.03_PT002H.grib2 2026-04-29 18:06 2.7M
20260429T12Z_MSC_CAPS_RelativeHumidity_IsbL-1000_RLatLon0.03_PT002H.grib2 2026-04-29 18:06 2.8M
20260429T12Z_MSC_CAPS_RelativeHumidity_IsbL-1015_RLatLon0.03_PT002H.grib2 2026-04-29 18:06 2.9M
20260429T12Z_MSC_CAPS_Runoff-Accum_Sfc_RLatLon0.03_PT002H.grib2 2026-04-29 18:06 206K
20260429T12Z_MSC_CAPS_SeaIceAreaFraction_Sfc_RLatLon0.03_PT002H.nc 2026-04-29 18:12 15M
20260429T12Z_MSC_CAPS_SeaIceCompressiveStrength_Sfc_RLatLon0.03_PT002H.nc 2026-04-29 18:12 15M
20260429T12Z_MSC_CAPS_SeaIceDivergence_Sfc_RLatLon0.03_PT002H.nc 2026-04-29 18:12 15M
20260429T12Z_MSC_CAPS_SeaIceInternalPressure_Sfc_RLatLon0.03_PT002H.nc 2026-04-29 18:12 15M
20260429T12Z_MSC_CAPS_SeaIceShear_Sfc_RLatLon0.03_PT002H.nc 2026-04-29 18:12 15M
20260429T12Z_MSC_CAPS_SeaIceSnowTemp_Sfc_RLatLon0.03_PT002H.nc 2026-04-29 18:12 15M
20260429T12Z_MSC_CAPS_SeaIceSnowVolume_Sfc_RLatLon0.03_PT002H.nc 2026-04-29 18:12 15M
20260429T12Z_MSC_CAPS_SeaIceVelocityX_Sfc_RLatLon0.03_PT002H.nc 2026-04-29 18:12 15M
20260429T12Z_MSC_CAPS_SeaIceVelocityY_Sfc_RLatLon0.03_PT002H.nc 2026-04-29 18:12 15M
20260429T12Z_MSC_CAPS_SeaIceVolume_Sfc_RLatLon0.03_PT002H.nc 2026-04-29 18:12 15M
20260429T12Z_MSC_CAPS_SeaSurfaceHeight_Sfc_RLatLon0.03_PT002H.nc 2026-04-29 18:12 16M
20260429T12Z_MSC_CAPS_SeaWaterSalinity_DBS-0.5m_RLatLon0.03_PT002H.nc 2026-04-29 18:12 16M
20260429T12Z_MSC_CAPS_SeaWaterSalinity_DBS-all_RLatLon0.03_PT002H.nc 2026-04-29 18:12 107M
20260429T12Z_MSC_CAPS_SeaWaterTemp_DBS-0.5m_RLatLon0.03_PT002H.nc 2026-04-29 18:12 14M
20260429T12Z_MSC_CAPS_SeaWaterTemp_DBS-all_RLatLon0.03_PT002H.nc 2026-04-29 18:12 87M
20260429T12Z_MSC_CAPS_SeaWaterVelocityX_DBS-0.5m_RLatLon0.03_PT002H.nc 2026-04-29 18:12 17M
20260429T12Z_MSC_CAPS_SeaWaterVelocityX_DBS-all_RLatLon0.03_PT002H.nc 2026-04-29 18:12 204M
20260429T12Z_MSC_CAPS_SeaWaterVelocityY_DBS-0.5m_RLatLon0.03_PT002H.nc 2026-04-29 18:12 17M
20260429T12Z_MSC_CAPS_SeaWaterVelocityY_DBS-all_RLatLon0.03_PT002H.nc 2026-04-29 18:12 209M
20260429T12Z_MSC_CAPS_SensibleHeatNetFlux_Sfc_RLatLon0.03_PT002H.grib2 2026-04-29 18:06 2.0M
20260429T12Z_MSC_CAPS_ShowalterIndex_IsbL-0500_RLatLon0.03_PT002H.grib2 2026-04-29 18:06 4.3M
20260429T12Z_MSC_CAPS_Snow-Accum_Sfc_RLatLon0.03_PT002H.grib2 2026-04-29 18:06 1.8M
20260429T12Z_MSC_CAPS_SnowDensity_Sfc_RLatLon0.03_PT002H.grib2 2026-04-29 18:06 1.2M
20260429T12Z_MSC_CAPS_SnowDepthWaterEquivalent_Sfc_RLatLon0.03_PT002H.grib2 2026-04-29 18:06 691K
20260429T12Z_MSC_CAPS_SnowDepth_Sfc_RLatLon0.03_PT002H.grib2 2026-04-29 18:06 1.2M
20260429T12Z_MSC_CAPS_SoilTemp_DBS-0to10cm_RLatLon0.03_PT002H.grib2 2026-04-29 18:06 1.2M
20260429T12Z_MSC_CAPS_SoilTemp_Sfc_RLatLon0.03_PT002H.grib2 2026-04-29 18:06 1.9M
20260429T12Z_MSC_CAPS_SoilVolumetricIceContent_Sfc_RLatLon0.03_PT002H.grib2 2026-04-29 18:06 1.4M
20260429T12Z_MSC_CAPS_SoilVolumetricWaterContent_DBS-0to10cm_RLatLon0.03_PT002H.grib2 2026-04-29 18:06 1.1M
20260429T12Z_MSC_CAPS_SoilVolumetricWaterContent_DBS-0to1cm_RLatLon0.03_PT002H.grib2 2026-04-29 18:06 1.6M
20260429T12Z_MSC_CAPS_SpecificHumidity_AGL-120m_RLatLon0.03_PT002H.grib2 2026-04-29 18:06 1.7M
20260429T12Z_MSC_CAPS_SpecificHumidity_AGL-2m_RLatLon0.03_PT002H.grib2 2026-04-29 18:06 2.1M
20260429T12Z_MSC_CAPS_SpecificHumidity_AGL-40m_RLatLon0.03_PT002H.grib2 2026-04-29 18:06 1.8M
20260429T12Z_MSC_CAPS_SpecificHumidity_AGL-80m_RLatLon0.03_PT002H.grib2 2026-04-29 18:06 1.7M
20260429T12Z_MSC_CAPS_SpecificHumidity_IsbL-0050_RLatLon0.03_PT002H.grib2 2026-04-29 18:06 851K
20260429T12Z_MSC_CAPS_SpecificHumidity_IsbL-0100_RLatLon0.03_PT002H.grib2 2026-04-29 18:06 925K
20260429T12Z_MSC_CAPS_SpecificHumidity_IsbL-0150_RLatLon0.03_PT002H.grib2 2026-04-29 18:06 1.0M
20260429T12Z_MSC_CAPS_SpecificHumidity_IsbL-0175_RLatLon0.03_PT002H.grib2 2026-04-29 18:06 950K
20260429T12Z_MSC_CAPS_SpecificHumidity_IsbL-0200_RLatLon0.03_PT002H.grib2 2026-04-29 18:06 813K
20260429T12Z_MSC_CAPS_SpecificHumidity_IsbL-0225_RLatLon0.03_PT002H.grib2 2026-04-29 18:06 1.0M
20260429T12Z_MSC_CAPS_SpecificHumidity_IsbL-0250_RLatLon0.03_PT002H.grib2 2026-04-29 18:06 1.0M
20260429T12Z_MSC_CAPS_SpecificHumidity_IsbL-0275_RLatLon0.03_PT002H.grib2 2026-04-29 18:06 1.0M
20260429T12Z_MSC_CAPS_SpecificHumidity_IsbL-0300_RLatLon0.03_PT002H.grib2 2026-04-29 18:06 1.1M
20260429T12Z_MSC_CAPS_SpecificHumidity_IsbL-0350_RLatLon0.03_PT002H.grib2 2026-04-29 18:06 1.1M
20260429T12Z_MSC_CAPS_SpecificHumidity_IsbL-0400_RLatLon0.03_PT002H.grib2 2026-04-29 18:06 1.0M
20260429T12Z_MSC_CAPS_SpecificHumidity_IsbL-0450_RLatLon0.03_PT002H.grib2 2026-04-29 18:06 1.0M
20260429T12Z_MSC_CAPS_SpecificHumidity_IsbL-0500_RLatLon0.03_PT002H.grib2 2026-04-29 18:06 933K
20260429T12Z_MSC_CAPS_SpecificHumidity_IsbL-0550_RLatLon0.03_PT002H.grib2 2026-04-29 18:06 1.0M
20260429T12Z_MSC_CAPS_SpecificHumidity_IsbL-0600_RLatLon0.03_PT002H.grib2 2026-04-29 18:06 1.2M
20260429T12Z_MSC_CAPS_SpecificHumidity_IsbL-0650_RLatLon0.03_PT002H.grib2 2026-04-29 18:06 1.3M
20260429T12Z_MSC_CAPS_SpecificHumidity_IsbL-0700_RLatLon0.03_PT002H.grib2 2026-04-29 18:06 1.4M
20260429T12Z_MSC_CAPS_SpecificHumidity_IsbL-0750_RLatLon0.03_PT002H.grib2 2026-04-29 18:06 1.5M
20260429T12Z_MSC_CAPS_SpecificHumidity_IsbL-0800_RLatLon0.03_PT002H.grib2 2026-04-29 18:06 1.3M
20260429T12Z_MSC_CAPS_SpecificHumidity_IsbL-0850_RLatLon0.03_PT002H.grib2 2026-04-29 18:06 1.4M
20260429T12Z_MSC_CAPS_SpecificHumidity_IsbL-0875_RLatLon0.03_PT002H.grib2 2026-04-29 18:06 1.5M
20260429T12Z_MSC_CAPS_SpecificHumidity_IsbL-0900_RLatLon0.03_PT002H.grib2 2026-04-29 18:06 1.6M
20260429T12Z_MSC_CAPS_SpecificHumidity_IsbL-0925_RLatLon0.03_PT002H.grib2 2026-04-29 18:06 1.6M
20260429T12Z_MSC_CAPS_SpecificHumidity_IsbL-0950_RLatLon0.03_PT002H.grib2 2026-04-29 18:06 1.7M
20260429T12Z_MSC_CAPS_SpecificHumidity_IsbL-0970_RLatLon0.03_PT002H.grib2 2026-04-29 18:06 1.8M
20260429T12Z_MSC_CAPS_SpecificHumidity_IsbL-0985_RLatLon0.03_PT002H.grib2 2026-04-29 18:06 1.9M
20260429T12Z_MSC_CAPS_SpecificHumidity_IsbL-1000_RLatLon0.03_PT002H.grib2 2026-04-29 18:06 1.9M
20260429T12Z_MSC_CAPS_SpecificHumidity_IsbL-1015_RLatLon0.03_PT002H.grib2 2026-04-29 18:06 2.0M
20260429T12Z_MSC_CAPS_SpecificHumidity_Sfc_RLatLon0.03_PT002H.grib2 2026-04-29 18:06 2.0M
20260429T12Z_MSC_CAPS_StormRelativeHelicity_Sfc_RLatLon0.03_PT002H.grib2 2026-04-29 18:06 3.2M
20260429T12Z_MSC_CAPS_Thickness_IsbL-1000to0500_RLatLon0.03_PT002H.grib2 2026-04-29 18:06 432K
20260429T12Z_MSC_CAPS_TotalCloudCover_Sfc_RLatLon0.03_PT002H.grib2 2026-04-29 18:06 3.2M
20260429T12Z_MSC_CAPS_TurboclineDepth_Sfc_RLatLon0.03_PT002H.nc 2026-04-29 18:12 16M
20260429T12Z_MSC_CAPS_UpwardLongwaveRadiationFlux_NTAtm_RLatLon0.03_PT002H.grib2 2026-04-29 18:06 2.7M
20260429T12Z_MSC_CAPS_UpwardShortwaveRadiationFlux_NTAtm_RLatLon0.03_PT002H.grib2 2026-04-29 18:06 2.1M
20260429T12Z_MSC_CAPS_VerticalVelocity_IsbL-0250_RLatLon0.03_PT002H.grib2 2026-04-29 18:06 888K
20260429T12Z_MSC_CAPS_VerticalVelocity_IsbL-0500_RLatLon0.03_PT002H.grib2 2026-04-29 18:06 1.1M
20260429T12Z_MSC_CAPS_VerticalVelocity_IsbL-0700_RLatLon0.03_PT002H.grib2 2026-04-29 18:06 911K
20260429T12Z_MSC_CAPS_VerticalVelocity_IsbL-0850_RLatLon0.03_PT002H.grib2 2026-04-29 18:06 1.1M
20260429T12Z_MSC_CAPS_VerticalVelocity_IsbL-1000_RLatLon0.03_PT002H.grib2 2026-04-29 18:06 1.0M
20260429T12Z_MSC_CAPS_WindDir_AGL-10m_RLatLon0.03_PT002H.grib2 2026-04-29 18:06 2.4M
20260429T12Z_MSC_CAPS_WindDir_AGL-120m_RLatLon0.03_PT002H.grib2 2026-04-29 18:06 1.3M
20260429T12Z_MSC_CAPS_WindDir_AGL-40m_RLatLon0.03_PT002H.grib2 2026-04-29 18:06 1.4M
20260429T12Z_MSC_CAPS_WindDir_AGL-80m_RLatLon0.03_PT002H.grib2 2026-04-29 18:06 1.3M
20260429T12Z_MSC_CAPS_WindDir_IsbL-0050_RLatLon0.03_PT002H.grib2 2026-04-29 18:06 1.0M
20260429T12Z_MSC_CAPS_WindDir_IsbL-0100_RLatLon0.03_PT002H.grib2 2026-04-29 18:06 1.0M
20260429T12Z_MSC_CAPS_WindDir_IsbL-0150_RLatLon0.03_PT002H.grib2 2026-04-29 18:06 1.0M
20260429T12Z_MSC_CAPS_WindDir_IsbL-0175_RLatLon0.03_PT002H.grib2 2026-04-29 18:06 1.0M
20260429T12Z_MSC_CAPS_WindDir_IsbL-0200_RLatLon0.03_PT002H.grib2 2026-04-29 18:06 1.1M
20260429T12Z_MSC_CAPS_WindDir_IsbL-0225_RLatLon0.03_PT002H.grib2 2026-04-29 18:06 1.1M
20260429T12Z_MSC_CAPS_WindDir_IsbL-0250_RLatLon0.03_PT002H.grib2 2026-04-29 18:06 1.1M
20260429T12Z_MSC_CAPS_WindDir_IsbL-0275_RLatLon0.03_PT002H.grib2 2026-04-29 18:06 1.1M
20260429T12Z_MSC_CAPS_WindDir_IsbL-0300_RLatLon0.03_PT002H.grib2 2026-04-29 18:06 1.1M
20260429T12Z_MSC_CAPS_WindDir_IsbL-0350_RLatLon0.03_PT002H.grib2 2026-04-29 18:06 1.1M
20260429T12Z_MSC_CAPS_WindDir_IsbL-0400_RLatLon0.03_PT002H.grib2 2026-04-29 18:06 1.2M
20260429T12Z_MSC_CAPS_WindDir_IsbL-0450_RLatLon0.03_PT002H.grib2 2026-04-29 18:06 1.2M
20260429T12Z_MSC_CAPS_WindDir_IsbL-0500_RLatLon0.03_PT002H.grib2 2026-04-29 18:06 1.1M
20260429T12Z_MSC_CAPS_WindDir_IsbL-0550_RLatLon0.03_PT002H.grib2 2026-04-29 18:06 1.2M
20260429T12Z_MSC_CAPS_WindDir_IsbL-0600_RLatLon0.03_PT002H.grib2 2026-04-29 18:06 1.2M
20260429T12Z_MSC_CAPS_WindDir_IsbL-0650_RLatLon0.03_PT002H.grib2 2026-04-29 18:06 1.3M
20260429T12Z_MSC_CAPS_WindDir_IsbL-0700_RLatLon0.03_PT002H.grib2 2026-04-29 18:06 1.4M
20260429T12Z_MSC_CAPS_WindDir_IsbL-0750_RLatLon0.03_PT002H.grib2 2026-04-29 18:06 1.5M
20260429T12Z_MSC_CAPS_WindDir_IsbL-0800_RLatLon0.03_PT002H.grib2 2026-04-29 18:06 1.6M
20260429T12Z_MSC_CAPS_WindDir_IsbL-0850_RLatLon0.03_PT002H.grib2 2026-04-29 18:06 1.7M
20260429T12Z_MSC_CAPS_WindDir_IsbL-0875_RLatLon0.03_PT002H.grib2 2026-04-29 18:06 1.9M
20260429T12Z_MSC_CAPS_WindDir_IsbL-0900_RLatLon0.03_PT002H.grib2 2026-04-29 18:06 1.9M
20260429T12Z_MSC_CAPS_WindDir_IsbL-0925_RLatLon0.03_PT002H.grib2 2026-04-29 18:06 2.0M
20260429T12Z_MSC_CAPS_WindDir_IsbL-0950_RLatLon0.03_PT002H.grib2 2026-04-29 18:06 2.1M
20260429T12Z_MSC_CAPS_WindDir_IsbL-0970_RLatLon0.03_PT002H.grib2 2026-04-29 18:06 2.1M
20260429T12Z_MSC_CAPS_WindDir_IsbL-0985_RLatLon0.03_PT002H.grib2 2026-04-29 18:06 2.2M
20260429T12Z_MSC_CAPS_WindDir_IsbL-1000_RLatLon0.03_PT002H.grib2 2026-04-29 18:06 2.3M
20260429T12Z_MSC_CAPS_WindDir_IsbL-1015_RLatLon0.03_PT002H.grib2 2026-04-29 18:06 2.4M
20260429T12Z_MSC_CAPS_WindGust-Max_AGL-10m_RLatLon0.03_PT002H.grib2 2026-04-29 18:06 2.3M
20260429T12Z_MSC_CAPS_WindGust-Min_AGL-10m_RLatLon0.03_PT002H.grib2 2026-04-29 18:06 2.3M
20260429T12Z_MSC_CAPS_WindGust_AGL-10m_RLatLon0.03_PT002H.grib2 2026-04-29 18:06 2.4M
20260429T12Z_MSC_CAPS_WindSpeed_AGL-10m_RLatLon0.03_PT002H.grib2 2026-04-29 18:06 2.1M
20260429T12Z_MSC_CAPS_WindSpeed_AGL-120m_RLatLon0.03_PT002H.grib2 2026-04-29 18:06 1.2M
20260429T12Z_MSC_CAPS_WindSpeed_AGL-40m_RLatLon0.03_PT002H.grib2 2026-04-29 18:06 1.3M
20260429T12Z_MSC_CAPS_WindSpeed_AGL-80m_RLatLon0.03_PT002H.grib2 2026-04-29 18:06 1.2M
20260429T12Z_MSC_CAPS_WindSpeed_IsbL-0050_RLatLon0.03_PT002H.grib2 2026-04-29 18:06 946K
20260429T12Z_MSC_CAPS_WindSpeed_IsbL-0100_RLatLon0.03_PT002H.grib2 2026-04-29 18:06 1.3M
20260429T12Z_MSC_CAPS_WindSpeed_IsbL-0150_RLatLon0.03_PT002H.grib2 2026-04-29 18:06 1.0M
20260429T12Z_MSC_CAPS_WindSpeed_IsbL-0175_RLatLon0.03_PT002H.grib2 2026-04-29 18:06 1.1M
20260429T12Z_MSC_CAPS_WindSpeed_IsbL-0200_RLatLon0.03_PT002H.grib2 2026-04-29 18:06 1.2M
20260429T12Z_MSC_CAPS_WindSpeed_IsbL-0225_RLatLon0.03_PT002H.grib2 2026-04-29 18:06 950K
20260429T12Z_MSC_CAPS_WindSpeed_IsbL-0250_RLatLon0.03_PT002H.grib2 2026-04-29 18:06 968K
20260429T12Z_MSC_CAPS_WindSpeed_IsbL-0275_RLatLon0.03_PT002H.grib2 2026-04-29 18:06 1.0M
20260429T12Z_MSC_CAPS_WindSpeed_IsbL-0300_RLatLon0.03_PT002H.grib2 2026-04-29 18:06 1.0M
20260429T12Z_MSC_CAPS_WindSpeed_IsbL-0350_RLatLon0.03_PT002H.grib2 2026-04-29 18:06 1.0M
20260429T12Z_MSC_CAPS_WindSpeed_IsbL-0400_RLatLon0.03_PT002H.grib2 2026-04-29 18:06 1.0M
20260429T12Z_MSC_CAPS_WindSpeed_IsbL-0450_RLatLon0.03_PT002H.grib2 2026-04-29 18:06 1.0M
20260429T12Z_MSC_CAPS_WindSpeed_IsbL-0500_RLatLon0.03_PT002H.grib2 2026-04-29 18:06 1.2M
20260429T12Z_MSC_CAPS_WindSpeed_IsbL-0550_RLatLon0.03_PT002H.grib2 2026-04-29 18:06 1.2M
20260429T12Z_MSC_CAPS_WindSpeed_IsbL-0600_RLatLon0.03_PT002H.grib2 2026-04-29 18:06 1.4M
20260429T12Z_MSC_CAPS_WindSpeed_IsbL-0650_RLatLon0.03_PT002H.grib2 2026-04-29 18:06 1.4M
20260429T12Z_MSC_CAPS_WindSpeed_IsbL-0700_RLatLon0.03_PT002H.grib2 2026-04-29 18:06 1.5M
20260429T12Z_MSC_CAPS_WindSpeed_IsbL-0750_RLatLon0.03_PT002H.grib2 2026-04-29 18:06 1.5M
20260429T12Z_MSC_CAPS_WindSpeed_IsbL-0800_RLatLon0.03_PT002H.grib2 2026-04-29 18:06 1.6M
20260429T12Z_MSC_CAPS_WindSpeed_IsbL-0850_RLatLon0.03_PT002H.grib2 2026-04-29 18:06 1.7M
20260429T12Z_MSC_CAPS_WindSpeed_IsbL-0875_RLatLon0.03_PT002H.grib2 2026-04-29 18:06 1.7M
20260429T12Z_MSC_CAPS_WindSpeed_IsbL-0900_RLatLon0.03_PT002H.grib2 2026-04-29 18:06 1.7M
20260429T12Z_MSC_CAPS_WindSpeed_IsbL-0925_RLatLon0.03_PT002H.grib2 2026-04-29 18:06 1.8M
20260429T12Z_MSC_CAPS_WindSpeed_IsbL-0950_RLatLon0.03_PT002H.grib2 2026-04-29 18:06 1.8M
20260429T12Z_MSC_CAPS_WindSpeed_IsbL-0970_RLatLon0.03_PT002H.grib2 2026-04-29 18:06 1.9M
20260429T12Z_MSC_CAPS_WindSpeed_IsbL-0985_RLatLon0.03_PT002H.grib2 2026-04-29 18:06 2.0M
20260429T12Z_MSC_CAPS_WindSpeed_IsbL-1000_RLatLon0.03_PT002H.grib2 2026-04-29 18:06 2.0M
20260429T12Z_MSC_CAPS_WindSpeed_IsbL-1015_RLatLon0.03_PT002H.grib2 2026-04-29 18:06 2.0M
20260429T12Z_MSC_CAPS_WindU_AGL-10m_RLatLon0.03_PT002H.grib2 2026-04-29 18:06 1.5M
20260429T12Z_MSC_CAPS_WindU_AGL-120m_RLatLon0.03_PT002H.grib2 2026-04-29 18:06 907K
20260429T12Z_MSC_CAPS_WindU_AGL-40m_RLatLon0.03_PT002H.grib2 2026-04-29 18:06 941K
20260429T12Z_MSC_CAPS_WindU_AGL-80m_RLatLon0.03_PT002H.grib2 2026-04-29 18:06 911K
20260429T12Z_MSC_CAPS_WindU_IsbL-0050_RLatLon0.03_PT002H.grib2 2026-04-29 18:06 959K
20260429T12Z_MSC_CAPS_WindU_IsbL-0100_RLatLon0.03_PT002H.grib2 2026-04-29 18:06 963K
20260429T12Z_MSC_CAPS_WindU_IsbL-0150_RLatLon0.03_PT002H.grib2 2026-04-29 18:06 920K
20260429T12Z_MSC_CAPS_WindU_IsbL-0175_RLatLon0.03_PT002H.grib2 2026-04-29 18:06 725K
20260429T12Z_MSC_CAPS_WindU_IsbL-0200_RLatLon0.03_PT002H.grib2 2026-04-29 18:06 870K
20260429T12Z_MSC_CAPS_WindU_IsbL-0225_RLatLon0.03_PT002H.grib2 2026-04-29 18:06 891K
20260429T12Z_MSC_CAPS_WindU_IsbL-0250_RLatLon0.03_PT002H.grib2 2026-04-29 18:06 911K
20260429T12Z_MSC_CAPS_WindU_IsbL-0275_RLatLon0.03_PT002H.grib2 2026-04-29 18:06 712K
20260429T12Z_MSC_CAPS_WindU_IsbL-0300_RLatLon0.03_PT002H.grib2 2026-04-29 18:06 719K
20260429T12Z_MSC_CAPS_WindU_IsbL-0350_RLatLon0.03_PT002H.grib2 2026-04-29 18:06 948K
20260429T12Z_MSC_CAPS_WindU_IsbL-0400_RLatLon0.03_PT002H.grib2 2026-04-29 18:06 953K
20260429T12Z_MSC_CAPS_WindU_IsbL-0450_RLatLon0.03_PT002H.grib2 2026-04-29 18:06 961K
20260429T12Z_MSC_CAPS_WindU_IsbL-0500_RLatLon0.03_PT002H.grib2 2026-04-29 18:06 851K
20260429T12Z_MSC_CAPS_WindU_IsbL-0550_RLatLon0.03_PT002H.grib2 2026-04-29 18:06 875K
20260429T12Z_MSC_CAPS_WindU_IsbL-0600_RLatLon0.03_PT002H.grib2 2026-04-29 18:06 903K
20260429T12Z_MSC_CAPS_WindU_IsbL-0650_RLatLon0.03_PT002H.grib2 2026-04-29 18:06 1.2M
20260429T12Z_MSC_CAPS_WindU_IsbL-0700_RLatLon0.03_PT002H.grib2 2026-04-29 18:06 1.2M
20260429T12Z_MSC_CAPS_WindU_IsbL-0750_RLatLon0.03_PT002H.grib2 2026-04-29 18:06 1.0M
20260429T12Z_MSC_CAPS_WindU_IsbL-0800_RLatLon0.03_PT002H.grib2 2026-04-29 18:06 1.1M
20260429T12Z_MSC_CAPS_WindU_IsbL-0850_RLatLon0.03_PT002H.grib2 2026-04-29 18:06 1.1M
20260429T12Z_MSC_CAPS_WindU_IsbL-0875_RLatLon0.03_PT002H.grib2 2026-04-29 18:06 1.3M
20260429T12Z_MSC_CAPS_WindU_IsbL-0900_RLatLon0.03_PT002H.grib2 2026-04-29 18:06 1.3M
20260429T12Z_MSC_CAPS_WindU_IsbL-0925_RLatLon0.03_PT002H.grib2 2026-04-29 18:06 1.4M
20260429T12Z_MSC_CAPS_WindU_IsbL-0950_RLatLon0.03_PT002H.grib2 2026-04-29 18:06 1.4M
20260429T12Z_MSC_CAPS_WindU_IsbL-0970_RLatLon0.03_PT002H.grib2 2026-04-29 18:06 1.4M
20260429T12Z_MSC_CAPS_WindU_IsbL-0985_RLatLon0.03_PT002H.grib2 2026-04-29 18:06 1.4M
20260429T12Z_MSC_CAPS_WindU_IsbL-1000_RLatLon0.03_PT002H.grib2 2026-04-29 18:06 1.4M
20260429T12Z_MSC_CAPS_WindU_IsbL-1015_RLatLon0.03_PT002H.grib2 2026-04-29 18:06 1.4M
20260429T12Z_MSC_CAPS_WindV_AGL-10m_RLatLon0.03_PT002H.grib2 2026-04-29 18:06 2.0M
20260429T12Z_MSC_CAPS_WindV_AGL-120m_RLatLon0.03_PT002H.grib2 2026-04-29 18:06 1.2M
20260429T12Z_MSC_CAPS_WindV_AGL-40m_RLatLon0.03_PT002H.grib2 2026-04-29 18:06 1.2M
20260429T12Z_MSC_CAPS_WindV_AGL-80m_RLatLon0.03_PT002H.grib2 2026-04-29 18:06 1.2M
20260429T12Z_MSC_CAPS_WindV_IsbL-0050_RLatLon0.03_PT002H.grib2 2026-04-29 18:06 785K
20260429T12Z_MSC_CAPS_WindV_IsbL-0100_RLatLon0.03_PT002H.grib2 2026-04-29 18:06 794K
20260429T12Z_MSC_CAPS_WindV_IsbL-0150_RLatLon0.03_PT002H.grib2 2026-04-29 18:06 918K
20260429T12Z_MSC_CAPS_WindV_IsbL-0175_RLatLon0.03_PT002H.grib2 2026-04-29 18:06 725K
20260429T12Z_MSC_CAPS_WindV_IsbL-0200_RLatLon0.03_PT002H.grib2 2026-04-29 18:06 869K
20260429T12Z_MSC_CAPS_WindV_IsbL-0225_RLatLon0.03_PT002H.grib2 2026-04-29 18:06 889K
20260429T12Z_MSC_CAPS_WindV_IsbL-0250_RLatLon0.03_PT002H.grib2 2026-04-29 18:06 910K
20260429T12Z_MSC_CAPS_WindV_IsbL-0275_RLatLon0.03_PT002H.grib2 2026-04-29 18:06 920K
20260429T12Z_MSC_CAPS_WindV_IsbL-0300_RLatLon0.03_PT002H.grib2 2026-04-29 18:06 931K
20260429T12Z_MSC_CAPS_WindV_IsbL-0350_RLatLon0.03_PT002H.grib2 2026-04-29 18:06 950K
20260429T12Z_MSC_CAPS_WindV_IsbL-0400_RLatLon0.03_PT002H.grib2 2026-04-29 18:06 954K
20260429T12Z_MSC_CAPS_WindV_IsbL-0450_RLatLon0.03_PT002H.grib2 2026-04-29 18:06 963K
20260429T12Z_MSC_CAPS_WindV_IsbL-0500_RLatLon0.03_PT002H.grib2 2026-04-29 18:06 853K
20260429T12Z_MSC_CAPS_WindV_IsbL-0550_RLatLon0.03_PT002H.grib2 2026-04-29 18:06 881K
20260429T12Z_MSC_CAPS_WindV_IsbL-0600_RLatLon0.03_PT002H.grib2 2026-04-29 18:06 905K
20260429T12Z_MSC_CAPS_WindV_IsbL-0650_RLatLon0.03_PT002H.grib2 2026-04-29 18:06 1.2M
20260429T12Z_MSC_CAPS_WindV_IsbL-0700_RLatLon0.03_PT002H.grib2 2026-04-29 18:06 1.2M
20260429T12Z_MSC_CAPS_WindV_IsbL-0750_RLatLon0.03_PT002H.grib2 2026-04-29 18:06 1.3M
20260429T12Z_MSC_CAPS_WindV_IsbL-0800_RLatLon0.03_PT002H.grib2 2026-04-29 18:06 1.1M
20260429T12Z_MSC_CAPS_WindV_IsbL-0850_RLatLon0.03_PT002H.grib2 2026-04-29 18:06 1.4M
20260429T12Z_MSC_CAPS_WindV_IsbL-0875_RLatLon0.03_PT002H.grib2 2026-04-29 18:06 1.5M
20260429T12Z_MSC_CAPS_WindV_IsbL-0900_RLatLon0.03_PT002H.grib2 2026-04-29 18:06 1.5M
20260429T12Z_MSC_CAPS_WindV_IsbL-0925_RLatLon0.03_PT002H.grib2 2026-04-29 18:06 1.6M
20260429T12Z_MSC_CAPS_WindV_IsbL-0950_RLatLon0.03_PT002H.grib2 2026-04-29 18:06 1.7M
20260429T12Z_MSC_CAPS_WindV_IsbL-0970_RLatLon0.03_PT002H.grib2 2026-04-29 18:06 1.7M
20260429T12Z_MSC_CAPS_WindV_IsbL-0985_RLatLon0.03_PT002H.grib2 2026-04-29 18:06 1.8M
20260429T12Z_MSC_CAPS_WindV_IsbL-1000_RLatLon0.03_PT002H.grib2 2026-04-29 18:06 1.8M
20260429T12Z_MSC_CAPS_WindV_IsbL-1015_RLatLon0.03_PT002H.grib2 2026-04-29 18:06 2.0M